STARLINK-11420, 62591

Orbit data source: Space-Track

STARLINK-11420, 62591 is a payload satellite owned by SpaceX/Seattle (US) in LEO that was launched on Mon, 13 Jan 2025 UTC via an FALCON 9 launch vehicle from the Air Force Eastern Test Range (AFETR). Payload-class satellites include a variety of spacecraft equipped with specific instruments for various scientific and technological missions. These include communications satellites like Starlink; space stations such as the ISS; scientific satellites like the Hubble; Earth observation satellites from companies like Planet Labs, Umbra, and HawkEye 360; GPS; miniature CubeSats for education and research; and military/defense satellites.

Loading next visibility...
Identifier
62591, 2025-008E
Orbit
LEO
Country
Flag of USUS
Related business
Manufacturer
SpaceX/Seattle
Mission
Operational Commercial Communications
Bus & Motor
STARLINK V2MD, Unknown motor
Mass
960 kg wet, ~910 kg dry
Launch date (UTC)
2025-01-13 (11 months ago)
Launch vehicle
FALCON 9
Launch site
Air Force Eastern Test Range (AFETR)
Object type
Payload
Rocket body
Debris
Shape & HBR
Box + 2 Pan, 18.1 m
Radar Cross Section
36.964 m², Large (>1 m²)

Expand to show TLE details & history
Last TLE update: 8 hours ago

TLE from 8 hours ago
0 STARLINK-11420
1 62591U 25008E   25346.96802751  .00362557  00000-0  26773-2 0  9991
2 62591  42.9986 289.0313 0003053 222.0933 137.9700 15.71107692 53656
Epoch: 2025-12-12T23:13Z
TLE epoch observation values (Epoch: 2025-12-12T23:13:57.576Z)
Latitude
-0.00007°
Longitude
-141.36072°
Altitude
357.028 km
Speed
7.696 km/s
True Right ascension
19h 16m 07s
True Declination
0° 00' 00"
Sunlit
Object was in daylight at epoch
Visualization orbit readout
Latitude
Unknown
Longitude
Unknown
Altitude
Unknown
Speed
Unknown
Apparent Right ascension
Unknown
Apparent Declination
Unknown
Sunlit
N/A
Visualization observer readout
Local Sidereal Time
05:28:43
Azimuth
Unknown
Elevation
Unknown
Doppler factor
Unknown
Orbital elements
Apogee altitude
359.769 km
Perigee altitude
355.656 km
Semi-major axis
6,735.849 km
Eccentricity
0.00031
Inclination
42.9986°
RAAN
289.0313°
Arg. of periapsis
222.0933°
True anomaly
137.99342°
Mean anomaly
137.97°
Eccentric anomaly
137.98171°
Mean motion
3.92604 °/min
Orbital period
91.7 mins
BSTAR
0.0026773
Loading maneuver chart data...
Computing Atmospheric mass density...
Loading historical data...
Loading historical data...
Loading historical data...
Loading historical data...
Loading historical data...
Loading historical data...
Loading historical data...

Documentation

Showing up to 5 results
|